This demonstration page uses our WeatherBlox Daily Observations layout. Learn more.

Left ArrowRight Arrow

Hourly Observations for May 18, 2021

Temp ( °F °C ) Dew Point ( °F °C ) Humidity (%) Winds ( mph kmh ) Pressure ( in mb ) Visibility ( mi km ) Precip ( " mm )
12:21 am 00:21 Cloudy 63 17.2 58 14.4 84 84 E 9 15 29.97 1015 10 16 N/A
12:54 am 00:54 Cloudy 62 16.7 58 14.4 86 86 ENE 10 17 29.97 1015 9 14 N/A
1:17 am 01:17 Cloudy 62 16.7 59 15 90 90 ENE 7 11 29.97 1015 9 14 N/A
1:54 am 01:54 Cloudy 62 16.7 59 15 90 90 NE 7 11 29.96 1015 7 11 N/A
2:27 am 02:27 Cloudy with Mist and Fog 62 16.7 59 15 90 90 E 6 9 29.96 1015 3 5 N/A
2:34 am 02:34 Cloudy with Mist and Fog 62 16.7 60 15.6 93 93 E 7 11 29.96 1015 2 3 N/A
2:54 am 02:54 Cloudy with Mist and Fog 62 16.7 60 15.6 93 93 ENE 5 7 29.96 1014 2 3 N/A
3:18 am 03:18 Cloudy with Light Rain 62 16.7 60 15.6 93 93 ENE 6 9 29.95 1014 3 4 0.01 0.25
3:38 am 03:38 Cloudy with Light Rain 62 16.7 60 15.6 93 93 NE 8 13 29.94 1014 3 5 0.01 0.25
3:54 am 03:54 Cloudy with Mist and Fog 62 16.7 60 15.6 93 93 ENE 7 11 29.93 1014 4 6 0.01 0.25
4:09 am 04:09 Cloudy with Light Rain 62 16.7 60 15.6 93 93 ENE 9 15 29.93 1014 2 3 0.00 0.00
4:54 am 04:54 Cloudy with Mist and Fog 62 16.7 60 15.6 93 93 E 7 11 29.93 1014 3 5 0.01 0.25
5:47 am 05:47 Cloudy with Light Rain 62 16.7 60 15.6 93 93 E 7 11 29.92 1013 3 5 0.01 0.25
5:54 am 05:54 Cloudy with Light Rain 62 16.7 60 15.6 93 93 E 7 11 29.92 1013 3 5 0.01 0.25
6:03 am 06:03 Cloudy with Light Rain 62 16.7 60 15.6 93 93 E 6 9 29.93 1014 2 3 0.01 0.25
6:24 am 06:24 Cloudy with Light Rain 62 16.7 60 15.6 93 93 E 7 11 29.93 1014 4 6 0.03 0.76
6:54 am 06:54 Cloudy with Light Rain 62 16.7 60 15.6 93 93 E 6 9 29.94 1014 3 5 0.04 1.02
7:54 am 07:54 Cloudy with Mist and Fog 63 17.2 60 15.6 90 90 E 7 11 29.93 1014 6 10 0.00 0.00
8:54 am 08:54 Cloudy 64 17.8 61 16.1 90 90 ENE 9 15 29.93 1014 8 13 N/A
9:38 am 09:38 Cloudy 65 18.3 61 16.1 87 87 E 8 13 29.94 1014 10 16 N/A
9:54 am 09:54 Cloudy 65 18.3 61 16.1 87 87 E 8 13 29.95 1014 10 16 N/A
10:11 am 10:11 Cloudy 64 17.8 60 15.6 87 87 E 9 15 29.94 1014 8 13 N/A
10:49 am 10:49 Cloudy 64 18 61 16 88 88 E 8 13 29.94 1014 9 14 N/A
10:54 am 10:54 Cloudy 66 18.9 61 16.1 84 84 E 8 13 29.94 1014 10 16 N/A
11:54 am 11:54 Cloudy 67 19.4 60 15.6 79 79 ESE 10 17 29.93 1014 10 16 N/A
12:25 pm 12:25 Cloudy 69 20.6 61 16.1 76 76 ESE 8 13 29.91 1013 10 16 N/A
12:42 pm 12:42 Cloudy 68 20 60 15.6 76 76 E 8 13 29.91 1013 10 16 N/A
12:54 pm 12:54 Cloudy 68 20 60 15.6 76 76 E 8 13 29.92 1013 10 16 N/A
1:02 pm 13:02 Cloudy 69 20.6 60 15.6 73 73 SE 6 9 29.90 1013 10 16 N/A
1:54 pm 13:54 Cloudy 68 20 60 15.6 76 76 SSE 7 11 29.92 1013 10 16 N/A
2:49 pm 14:49 Cloudy 70 21 61 16 73 73 SE 5 7 29.90 1013 10 16 N/A
2:54 pm 14:54 Cloudy 70 21.1 60 15.6 71 71 SE 5 7 29.92 1013 10 16 N/A
3:54 pm 15:54 Cloudy 71 21.7 60 15.6 68 68 N N/A 29.91 1013 10 16 N/A
4:54 pm 16:54 Mostly Cloudy 73 22.8 60 15.6 64 64 N N/A 29.89 1012 10 16 N/A
5:10 pm 17:10 Mostly Cloudy 73 22.8 61 16.1 66 66 ENE 6 9 29.87 1011 10 16 N/A
5:54 pm 17:54 Mostly Cloudy 72 22.2 60 15.6 66 66 E 3 6 29.88 1012 10 16 N/A
6:01 pm 18:01 Mostly Cloudy 73 22.8 61 16.1 66 66 ENE 5 7 29.86 1011 10 16 N/A
6:54 pm 18:54 Mostly Sunny 73 22.8 61 16.1 66 66 E 6 9 29.87 1012 10 16 N/A
7:54 pm 19:54 Mostly Sunny 70 21.1 61 16.1 73 73 E 5 7 29.87 1012 10 16 N/A
8:54 pm 20:54 Clear 69 20.6 61 16.1 76 76 E 5 7 29.89 1012 10 16 N/A
9:54 pm 21:54 Clear 68 20 61 16.1 78 78 E 6 9 29.90 1012 10 16 N/A
10:54 pm 22:54 Clear 66 18.9 61 16.1 84 84 ESE 5 7 29.91 1013 10 16 N/A
11:54 pm 23:54 Clear 66 18.9 61 16.1 84 84 ESE 6 9 29.90 1013 10 16 N/A

Powered by AerisWeather